This demonstration page uses our WeatherBlox Daily Observations layout. Learn more.

Left ArrowRight Arrow

41.55636, -103.73856

Hourly Observations for February 8, 2015

Temp ( °F °C ) Dew Point ( °F °C ) Humidity (%) Winds ( mph kmh ) Pressure ( in mb ) Visibility ( mi km ) Precip ( " mm )
12:53 am 00:53 Clear 41 5 29 -1.7 62 62 WNW 8 13 29.85 1011 10 16.0934 0 0
1:53 am 01:53 Clear 35 1.7 28 -2.2 76 76 NW 9 15 29.87 1012 10 16.0934 0 0
2:53 am 02:53 Clear 40 4.4 27 -2.8 60 60 W 8 13 29.87 1012 10 16.0934 0 0
3:53 am 03:53 Clear 41 5 28 -2.2 60 60 W 10 17 29.88 1012 10 16.0934 0 0
4:53 am 04:53 Partly Cloudy 43 6.1 29 -1.7 58 58 WNW 12 19 29.9 1013 10 16.0934 0 0
5:53 am 05:53 Cloudy 41 5 30 -1.1 65 65 W 15 24 29.94 1014 10 16.0934 0 0
6:53 am 06:53 Mostly Clear 41 5 30 -1.1 65 65 NW 13 20 29.95 1014 10 16.0934 0 0
7:53 am 07:53 Cloudy 52 11.1 36 2.2 55 55 W 16 26 29.94 1014 10 16.0934 0 0
8:53 am 08:53 Mostly Sunny 53 11.7 34 1.1 48 48 W 16 26 29.96 1015 10 16.0934 0 0
9:53 am 09:53 Sunny 57 13.9 34 1.1 42 42 W 21 33 29.96 1015 10 16.0934 0 0
10:53 am 10:53 Sunny 60 15.6 33 0.6 36 36 WNW 20 31 29.96 1015 10 16.0934 0 0
11:53 am 11:53 Sunny 61 16.1 32 0 34 34 NW 18 30 29.98 1015 10 16.0934 0 0
12:53 pm 12:53 Sunny 64 17.8 29 -1.7 27 27 NW 22 35 29.97 1015 10 16.0934 0 0
1:53 pm 13:53 Sunny 64 17.8 29 -1.7 27 27 NW 18 30 29.98 1015 10 16.0934 0 0
2:53 pm 14:53 Sunny 64 17.8 28 -2.2 26 26 NW 20 31 29.98 1015 10 16.0934 0 0
3:53 pm 15:53 Sunny 61 16.1 27 -2.8 27 27 NW 16 26 30.01 1016 10 16.0934 0 0
4:53 pm 16:53 Sunny 57 13.9 28 -2.2 33 33 NW 13 20 30.05 1018 10 16.0934 0 0
5:53 pm 17:53 Clear 48 8.9 30 -1.1 50 50 NW 9 15 30.09 1019 10 16.0934 0 0
6:53 pm 18:53 Clear 44 6.7 28 -2.2 53 53 ENE 5 7 30.13 1020 10 16.0934 0 0
7:53 pm 19:53 Clear 39 3.9 28 -2.2 65 65 Calm 30.13 1020 10 16.0934 0 0
8:53 pm 20:53 Clear 36 2.2 28 -2.2 73 73 NW 6 9 30.14 1021 10 16.0934 0 0
9:53 pm 21:53 Clear 34 1.1 28 -2.2 79 79 N 5 7 30.15 1021 10 16.0934 0 0
10:53 pm 22:53 Clear 32 0 27 -2.8 82 82 NNW 7 11 30.15 1021 10 16.0934 0 0
11:53 pm 23:53 Clear 29 -1.7 26 -3.3 89 89 VRB 6 9 30.17 1022 10 16.0934 0 0

Powered by AerisWeather